Location: Ertinghausen
(51.6624°N, 9.7874°E)
Time: 11:10:08
(UTC+00:00)

Cosmos 1709 Rocket - Pass Details

Date: 23 May 2024
Orbit: 948 x 1001 km, 82.9° (Epoch: 23 June)

Event Time Altitude Azimuth Distance (km) Brightness Sun altitude
Exits shadow 01:49:41 12° 202° (SSW) 2,590 5.6 -10.4°
Maximum altitude 01:55:32 66° 284° (WNW) 1,087 4.2 -9.9°
Drops below altitude 10° 02:01:54 10° 6° (N) 2,784 7.4 -9.3°
Sets 02:04:29 0° 9° (N) 3,739 8.2 -9.0°
